VE3DVC Weather Reports


Display with metric or nautical units.
time (UTC)temp
F
wind
direction
speed
MPH
gust
MPH
rain 1hr
in
rain 24hr
in
rain mn
in
humidity
%
barometer
mb
20260509133135 54 0 0.0 1.0 0.00 0.00 0.00 92 1006.1
20260509131934 53 0 0.0 2.0 0.00 0.00 0.00 92 1006.2
20260509130734 53 0 0.0 3.0 0.00 0.00 0.00 92 1006.1
20260509125534 53 0 0.0 2.0 0.00 0.00 0.00 91 1006.3
20260509124334 52 0 0.0 5.0 0.00 0.00 0.00 91 1006.2
20260509123134 52 0 0.0 3.0 0.00 0.00 0.00 91 1006.3
20260509121934 52 0 0.0 2.0 0.00 0.00 0.00 91 1006.4
20260509120734 52 0 0.0 1.0 0.00 0.00 0.00 91 1006.4
20260509115534 51 0 0.0 1.0 0.00 0.00 0.00 91 1006.4
20260509114333 51 0 0.0 1.0 0.00 0.00 0.00 91 1006.4
20260509113135 50 0 0.0 0.0 0.00 0.00 0.00 91 1006.4
20260509111624 50 0 0.0 0.0 0.00 0.00 0.00 91 1006.4
20260509110424 49 0 0.0 0.0 0.00 0.00 0.00 91 1006.3
20260509105224 49 0 0.0 0.0 0.00 0.00 0.00 91 1006.2
20260509103025 48 0 0.0 0.0 0.00 0.00 0.00 92 1006.3
20260509101825 48 0 0.0 0.0 0.00 0.00 0.00 91 1006.3
20260509100625 48 0 0.0 0.0 0.00 0.00 0.00 92 1006.4
20260509095425 48 0 0.0 0.0 0.00 0.00 0.00 91 1006.6
20260509094225 48 0 0.0 0.0 0.00 0.00 0.00 92 1006.7
20260509093025 48 0 0.0 0.0 0.00 0.00 0.00 92 1006.5
20260509091826 48 0 0.0 0.0 0.00 0.00 0.00 92 1006.7
20260509090626 49 0 0.0 0.0 0.00 0.00 0.00 92 1006.6
20260509085426 49 0 0.0 0.0 0.00 0.00 0.00 92 1006.5
20260509084226 49 0 0.0 0.0 0.00 0.00 0.00 92 1006.7
20260509082411 49 0 0.0 0.0 0.00 0.00 0.00 91 1006.8
20260509081211 49 0 0.0 0.0 0.00 0.00 0.00 91 1006.9
20260509080011 49 0 0.0 0.0 0.00 0.00 0.00 91 1006.9
20260509074810 49 0 0.0 0.0 0.00 0.00 0.00 91 1007.0
20260509073611 49 0 0.0 0.0 0.00 0.00 0.00 91 1007.1
20260509072411 49 0 0.0 0.0 0.00 0.00 0.00 91 1007.0
20260509071211 49 0 0.0 0.0 0.00 0.00 0.00 92 1007.2
20260509070010 49 0 0.0 1.0 0.00 0.00 0.00 91 1007.2
20260509064811 48 0 0.0 0.0 0.00 0.00 0.00 91 1007.3
20260509063611 47 0 0.0 0.0 0.00 0.00 0.00 91 1007.4
20260509060706 46 0 0.0 0.0 0.00 0.00 0.00 91 1007.7
20260509055507 45 0 0.0 0.0 0.00 0.00 0.00 91 1007.9
20260509054307 44 0 0.0 0.0 0.00 0.00 0.00 90 1008.2
20260509053106 44 0 0.0 0.0 0.00 0.00 0.00 89 1008.3
20260509051906 44 0 0.0 0.0 0.00 0.00 0.00 89 1008.5
20260509050707 44 0 0.0 0.0 0.00 0.00 0.00 88 1008.5
20260509045506 44 0 0.0 0.0 0.00 0.00 0.00 88 1008.5
20260509044306 44 0 0.0 0.0 0.00 0.00 0.00 87 1008.7
20260509043107 44 0 0.0 0.0 0.00 0.00 0.00 86 1008.7
20260509041907 44 0 0.0 0.0 0.00 0.00 0.00 85 1008.8
20260509035910 44 0 0.0 0.0 0.00 0.00 0.00 84 1009.0
20260509034711 45 0 0.0 0.0 0.00 0.00 0.00 83 1009.1
20260509033510 45 0 0.0 0.0 0.00 0.00 0.00 83 1009.2
20260509032310 45 0 0.0 0.0 0.00 0.00 0.00 83 1009.3
20260509031110 46 0 0.0 0.0 0.00 0.00 0.00 83 1009.5
20260509025910 46 0 0.0 0.0 0.00 0.00 0.00 82 1009.6
20260509024710 46 0 0.0 0.0 0.00 0.00 0.00 82 1009.7
20260509023510 46 0 0.0 0.0 0.00 0.00 0.00 81 1009.7
20260509022310 46 0 0.0 0.0 0.00 0.00 0.00 80 1009.8
20260509021110 46 0 0.0 0.0 0.00 0.00 0.00 77 1009.8
20260509015909 46 0 0.0 0.0 0.00 0.00 0.00 74 1009.6
20260509014710 47 0 0.0 0.0 0.00 0.00 0.00 72 1009.5
20260509013510 47 0 0.0 0.0 0.00 0.00 0.00 72 1009.4
20260509012310 48 0 0.0 0.0 0.00 0.00 0.00 70 1009.3
20260509011109 49 0 0.0 0.0 0.00 0.00 0.00 69 1009.2
20260509005910 50 0 0.0 0.0 0.00 0.00 0.00 66 1009.1
20260509004710 50 0 0.0 0.0 0.00 0.00 0.00 65 1009.1
20260509003509 52 0 0.0 0.0 0.00 0.00 0.00 62 1009.1
20260509002310 52 0 0.0 0.0 0.00 0.00 0.00 60 1009.1
20260509001110 53 0 0.0 0.0 0.00 0.00 0.00 57 1009.1
20260508225347 55 0 0.0 3.0 0.00 0.00 0.00 53 1009.0
20260508222947 56 0 0.0 2.0 0.00 0.00 0.00 49 1009.1
20260508221747 56 0 0.0 4.0 0.00 0.00 0.00 50 1009.1
20260508220546 57 0 0.0 3.0 0.00 0.00 0.00 47 1009.2
20260508215347 57 0 0.0 5.0 0.00 0.00 0.00 46 1009.2
20260508214147 57 0 0.0 2.0 0.00 0.00 0.00 46 1009.2
20260508212947 57 176 1.0 6.0 0.00 0.00 0.00 46 1009.2
20260508211746 58 0 0.0 5.0 0.00 0.00 0.00 47 1009.1
20260508210547 58 0 0.0 7.0 0.00 0.00 0.00 49 1009.1
20260508205347 58 0 0.0 5.0 0.00 0.00 0.00 48 1009.1
20260508204147 58 0 0.0 4.0 0.00 0.00 0.00 51 1009.1
20260508202947 58 0 0.0 5.0 0.00 0.00 0.00 51 1009.2
20260508201746 57 133 1.0 3.0 0.00 0.00 0.00 52 1009.3
20260508200547 57 238 2.0 6.0 0.00 0.00 0.00 51 1009.4
20260508195347 58 0 0.0 5.0 0.00 0.00 0.00 50 1009.4
20260508194147 58 127 1.0 5.0 0.00 0.00 0.00 50 1009.6
20260508192947 58 194 2.0 5.0 0.00 0.00 0.00 52 1009.6
20260508191747 58 0 0.0 6.0 0.00 0.00 0.00 56 1009.9
20260508190546 57 107 1.0 5.0 0.00 0.00 0.00 55 1010.0
20260508185347 57 200 1.0 6.0 0.00 0.00 0.00 55 1010.2
20260508184146 57 92 1.0 6.0 0.00 0.00 0.00 57 1010.1
20260508182946 57 151 1.0 4.0 0.00 0.00 0.00 59 1010.5
20260508181746 57 231 2.0 4.0 0.00 0.00 0.00 58 1010.6
20260508180546 56 235 2.0 7.0 0.00 0.00 0.00 59 1010.7
20260508175347 55 254 2.0 8.0 0.00 0.00 0.00 63 1010.9
20260508174147 55 82 1.0 7.0 0.00 0.00 0.00 61 1011.0
20260508172946 55 125 1.0 7.0 0.00 0.00 0.00 61 1011.2
20260508171746 54 53 1.0 5.0 0.00 0.00 0.00 66 1011.1
20260508170546 55 0 0.0 5.0 0.00 0.00 0.00 66 1011.2
20260508164313 55 222 1.0 4.0 0.00 0.00 0.00 70 1011.3
20260508163113 54 234 2.0 9.0 0.00 0.00 0.00 69 1011.5
20260508161913 54 178 1.0 5.0 0.00 0.00 0.00 71 1011.6
20260508160713 53 236 2.0 5.0 0.00 0.00 0.00 71 1011.7
20260508155513 53 91 1.0 4.0 0.00 0.00 0.00 72 1011.8
20260508154313 53 236 1.0 5.0 0.00 0.00 0.00 74 1011.7
20260508153113 53 0 0.0 6.0 0.00 0.00 0.00 73 1011.8
20260508151913 52 227 1.0 4.0 0.00 0.00 0.00 74 1011.8
20260508150714 52 0 0.0 3.0 0.00 0.00 0.00 71 1011.8
20260508145513 52 0 0.0 3.0 0.00 0.00 0.00 74 1011.9
20260508143423 50 0 0.0 2.0 0.00 0.00 0.00 74 1012.0
20260508142223 50 0 0.0 1.0 0.00 0.00 0.00 72 1012.0
20260508141024 50 0 0.0 2.0 0.00 0.00 0.00 70 1011.9
20260508135823 49 0 0.0 4.0 0.00 0.00 0.00 71 1011.9
20260508134624 48 0 0.0 3.0 0.00 0.00 0.00 77 1011.8